Location: Stanford
(52.2833°N, 2.4333°W)
Time: 20:13:16
(UTC+00:00)

Cosmos-2242 - Pass Details

Date: 22 January 2021
Orbit: 591 x 616 km, 82.5° (Epoch: 27 February)

Event Time Altitude Azimuth Distance (km) Brightness Sun altitude
Rises 19:00:58 0° 351° (N) 2,846 6.5 -21.3°
Reaches altitude 10° 19:03:12 10° 355° (N) 1,942 5.6 -21.6°
Enters shadow 19:06:05 39° 15° (NNE) 898 3.7 -22.1°
